Location: *
(45.8589°N, 4.7139°E)
Time: 22:12:23
(UTC+00:00)

MOS 1 Rocket - Pass Details

Date: 09 April 2020
Orbit: 615 x 830 km, 97.4° (Epoch: 24 May)

Event Time Altitude Azimuth Distance (km) Brightness Sun altitude
Rises 19:15:39 0° 19° (NNE) 3,354 6.9 -10.0°
Reaches altitude 10° 19:18:11 10° 28° (NNE) 2,432 6.1 -10.4°
Maximum altitude 19:23:12 37° 95° (E) 1,277 4.2 -11.2°
Drops below altitude 10° 19:28:10 10° 162° (SSE) 2,423 5.7 -12.0°
Sets 19:30:41 0° 170° (S) 3,340 6.5 -12.4°
